Content
SEND FEEDBACK

Cameroon Flag

DOUALA, CAMEROON


Home > Africa > Cameroon
Elevation: 9 meters     Latitude: 04 00N     Longitude: 009 44E

WEATHER
 
SELECT A DAY
Number of Records: 135,821;   Date Range: 12/24/98 - 3/22/16
 
SHARE

PRINT THIS DATA

[ ← Previous Day ]
WEATHER ALMANAC - 13 FEBRUARY, 2013
[ Next Day → ]
[ °F ]   °C
Weather ElementAverageHighLow
Temperature28.7 °C33 °C (1:00 pm)24.4 °C (7:00 am)
Dewpoint24.9 °C26.1 °C (1:00 am)23.9 °C (7:00 am)
Humidity80.2 %96 % (1:00 am)57 % (1:00 pm)
Barometer1009.1 hPa1011.2 hPa (11:00 am)1007.1 hPa (4:00 pm)
Wind Speed5 km/h18.5 km/h (1:00 pm)
Weather ElementAverage
Visibility8 km
Wind DirectionE (87.4 °)

Weather ElementTotal
Precipitation---
Cooling Degree Days10.4 (Base 18.3)
Growing Degree Days18.7 (Base 10)
Averaged from 26 records on 13 February, 2013
WEATHER CONDITIONS BREAKOUT
WIND DIRECTION BREAKOUT
WEATHER BY HOUR - 13 FEBRUARY, 2013
[ °F ]   °C
Local TimeTemperatureDewpointHumidityBarometerVisibilityWind DirectionWind SpeedGust SpeedPrecipitationEventsConditions
1:00 AM26.7 °C26.1 °C96 %1009.8 hPa9.7 kmCalmMostly Cloudy
1:00 AM27 °C26 °C94 %1010.2 hPa10 kmCalmThunderstormThunderstorm
2:00 AM27 °C26 °C94 %1009.1 hPa6.9 kmNorth (360°)14.8 km/hThunderstormThunderstorm
3:00 AM26 °C24 °C89 %1009.1 hPa6.9 kmNorth (360°)7.4 km/hThunderstormThunderstorm
4:00 AM26 °C24 °C89 %1009.1 hPa6.9 kmCalmThunderstormThunderstorm
5:00 AM25 °C24 °C94 %1009.1 hPa4 kmCalmThunderstormPartly Cloudy
6:00 AM25 °C24 °C94 %1009.1 hPaVariable1.9 km/hThunderstormPartly Cloudy
7:00 AM25 °C24 °C94 %1010.2 hPa2.6 kmCalmThunderstormMostly Cloudy
7:00 AM24.4 °C23.9 °C94 %1009.5 hPa3.2 kmCalmThunderstormThunderstorm
9:00 AM28 °C25 °C84 %1010.2 hPa6 kmCalmMostly Cloudy
10:00 AM30 °C24 °C70 %1010.2 hPa6 kmCalmMostly Cloudy
11:00 AM31 °C25 °C70 %1011.2 hPa6 kmCalmMostly Cloudy
12:00 PM32 °C25 °C66 %1011.2 hPa6 kmSW (220°)7.4 km/hPartly Cloudy
1:00 PM33 °C25 °C63 %1010.2 hPa10 kmSW (220°)18.5 km/hMostly Cloudy
1:00 PM32.2 °C25 °C57 %1010.2 hPa9.7 kmSW (220°)18.5 km/hPartly Cloudy
2:00 PM32 °C25 °C66 %1008.1 hPa10 kmSW (220°)18.5 km/hMostly Cloudy
3:00 PM32 °C25 °C66 %1008.1 hPa10 kmSW (220°)14.8 km/hMostly Cloudy
4:00 PM32 °C24 °C62 %1007.1 hPa10 kmVariable11.1 km/hMostly Cloudy
5:00 PM31 °C25 °C70 %1007.1 hPa10 kmVariable11.1 km/hMostly Cloudy
6:00 PM30 °C24 °C70 %1007.1 hPa10 kmSouth (190°)7.4 km/hMostly Cloudy
7:00 PM29 °C25 °C79 %1008.1 hPa10 kmCalmMostly Cloudy
7:00 PM28.9 °C25 °C73 %1008.8 hPa9.7 kmCalmPartly Cloudy
8:00 PM28 °C25 °C84 %1008.1 hPa10 kmCalmMostly Cloudy
9:00 PM28 °C26 °C89 %1009.1 hPa10 kmCalmPartly Cloudy
10:00 PM28 °C26 °C89 %1008.1 hPa10 kmCalmPartly Cloudy
11:00 PM28 °C26 °C89 %1009.1 hPa10 kmCalmPartly Cloudy
Hourly data recorded from FKKD, located 0 kilometers away from Douala, Cameroon




STORIES FROM OUR PARTNERS